RH
99 98 100 100 100 100 99 99 99 99 99 98 96 95 78 66 65 37 36 35 34 34 35 35 34 33 37 50 43 44 44 49 48 55 67 68 68 75 78 81 79 85 74 70 69 70 69
98 96 99 98 97 98 100 99 99 99 99 100 97 87 58 39 30 32 33 33 36 38 39 38 39 39 57 37 35 43 43 50 51 54 68 66 69 69 83 88 84 73 78 80 75 74 70
93 96 99 97 99 100 100 99 99 99 99 96 94 64 35 26 27 30 29 35 37 39 48 47 44 49 68 38 42 48 48 51 57 59 63 68 68 74 77 88 76 83 96 82 70 70 72
93 93 94 93 93 96 98 98 94 95 96 96 76 34 19 18 23 28 33 33 35 42 39 43 50 65 49 39 46 54 53 56 60 65 67 68 72 78 86 80 77 83 82 81 54 62 61
84 83 80 89 99 99 96 96 96 96 95 88 57 15 7 9 16 26 32 33 46 52 42 45 69 66 45 52 56 50 56 55 61 66 69 71 72 86 80 89 75 74 84 82 74 63 67
78 85 98 100 97 94 95 96 95 96 95 78 44 10 4 5 8 26 30 33 55 67 66 72 75 58 49 43 52 57 57 60 63 68 73 78 85 90 86 81 79 81 86 87 84 67 68
95 100 97 94 94 95 95 95 95 96 95 91 59 15 4 3 4 32 28 33 38 32 75 34 36 39 36 46 51 60 63 67 69 74 80 86 93 88 61 74 68 76 91 93 76 63 74
98 95 94 93 94 93 94 95 94 95 94 62 21 6 4 3 3 32 36 44 44 55 65 56 59 56 47 41 38 56 64 65 78 75 86 76 93 68 68 70 78 85 93 88 72 66 68
94 93 92 92 92 92 93 93 93 93 90 67 14 11 4 3 8 42 48 51 58 68 76 51 55 47 40 42 42 43 68 70 71 70 80 66 42 63 66 70 82 85 87 82 78 76 70
92 92 91 91 91 91 92 92 91 90 89 42 7 7 7 5 41 48 54 54 63 67 68 36 44 40 47 41 39 52 62 49 57 63 60 74 59 63 68 78 76 84 71 76 83 87 96
91 90 90 90 90 91 91 91 90 88 79 15 13 6 11 16 25 61 61 60 64 56 44 25 36 36 45 41 38 52 64 52 62 50 48 46 45 67 78 72 72 64 64 73 82 90 87
89 89 89 89 89 90 90 89 90 89 69 11 7 24 30 49 67 71 70 62 58 58 37 28 34 39 36 42 41 59 61 53 56 68 64 60 52 54 61 56 72 66 66 68 79 82 83
88 87 88 88 88 88 88 88 85 84 47 9 21 73 76 70 77 75 68 58 59 59 24 27 30 38 41 41 42 59 61 68 58 44 44 47 53 54 54 56 62 64 66 75 72 81 66
87 87 86 86 87 87 86 85 85 81 41 9 39 82 81 82 86 76 67 44 39 32 25 38 36 36 39 39 37 46 53 53 56 44 54 66 52 52 54 51 45 74 63 74 69 76 74
85 85 85 86 86 87 88 86 84 25 5 18 61 78 71 58 70 70 66 68 49 43 55 54 44 30 30 40 41 36 46 45 40 54 56 54 45 41 54 49 47 60 79 61 71 81 90
83 84 84 84 86 86 87 85 82 42 6 37 59 76 68 55 64 65 74 65 42 56 65 46 48 35 41 38 39 33 33 56 59 48 46 47 56 35 42 47 52 54 53 69 81 82 76
83 82 82 83 85 85 85 84 82 67 9 35 56 82 51 56 60 73 84 79 76 62 67 68 62 60 51 50 46 42 35 73 75 63 48 48 56 47 43 53 52 65 65 63 66 75 74
82 82 84 81 82 85 84 83 78 61 22 41 70 63 43 53 74 92 88 82 72 72 53 80 78 83 88 81 68 44 49 75 60 72 77 61 63 73 46 38 46 57 62 63 65 60 77
81 81 76 81 80 86 84 82 79 65 60 88 96 94 32 42 82 88 81 68 72 74 60 70 72 71 68 89 89 76 77 72 54 69 71 80 80 80 56 42 50 52 54 54 61 67 74
81 81 81 82 84 86 85 80 80 17 18 60 87 59 67 78 87 88 93 86 78 65 60 55 68 65 72 74 75 75 70 67 56 48 53 74 83 71 76 54 63 59 54 53 57 77 62
77 84 79 79 84 82 88 80 80 44 18 40 90 96 90 87 74 91 69 79 78 73 62 62 75 74 79 93 62 67 61 72 56 50 76 83 96 78 75 79 81 77 76 72 68 61 70
78 81 81 80 75 77 84 81 78 75 27 58 87 91 91 88 84 80 76 82 69 69 73 67 80 77 76 92 71 85 88 73 71 67 61 55 66 72 58 54 61 65 60 66 68 65 64
82 77 80 82 78 80 84 79 80 78 56 67 78 86 84 72 80 64 84 76 65 76 62 63 77 85 76 68 68 69 67 68 67 65 55 67 68 69 44 30 40 60 41 45 50 53 55
80 78 78 80 80 83 88 89 85 88 75 75 74 83 90 61 69 56 68 69 74 80 84 71 72 81 61 58 55 52 57 60 59 63 61 78 76 71 75 60 79 23 44 47 59 79 76
82 80 74 80 76 79 80 81 82 82 87 75 78 74 89 91 74 70 66 73 82 72 81 76 62 60 60 65 71 61 59 46 48 67 71 72 91 87 85 74 52 41 43 73 76 86 77
82 82 82 81 83 87 80 80 77 80 79 74 71 79 96 97 82 64 83 80 93 94 93 81 66 53 62 66 57 77 56 66 61 56 41 76 81 92 80 84 77 53 86 81 75 90 78
85 84 80 84 80 79 69 82 84 80 77 81 81 78 92 99 89 72 92 79 77 92 94 84 80 86 67 77 76 67 67 58 80 70 62 67 70 90 83 90 75 86 73 55 82 84 66
82 85 85 82 85 82 81 78 83 85 86 89 85 81 88 100 86 81 75 83 83 92 94 77 90 87 90 99 96 74 97 67 75 56 79 70 82 89 71 68 76 65 38 58 52 32 69
83 86 88 85 79 87 79 80 92 91 86 86 88 85 92 100 91 78 71 70 70 69 78 88 85 79 78 95 97 98 76 72 67 89 52 71 56 57 57 47 33 29 34 31 58 75 71
Wind_Speed
14 16 16 17 18 18 19 19 20 20 20 20 21 21 22 22 20 18 16 14 14 13 12 11 10 7 2 2 7 5 2 1 2 3 4 2 2 1 1 2 3 5 6 7 10 12 10
15 16 17 17 18 18 20 20 21 22 22 22 22 23 23 23 23 20 15 14 15 14 12 10 8 3 2 3 4 6 3 2 1 2 2 2 3 2 2 3 2 2 6 14 11 13 8
15 16 17 18 19 20 21 21 22 23 23 23 24 24 24 24 25 22 17 17 17 16 13 10 6 3 2 9 5 7 5 3 3 2 2 2 3 2 2 3 3 4 8 8 3 1 4
16 17 17 18 18 20 20 22 22 23 23 25 25 25 25 24 24 22 18 21 16 8 6 4 4 5 6 3 6 8 6 3 4 4 2 2 3 2 2 4 4 4 2 5 3 3 3
13 14 15 18 19 20 21 21 23 24 25 26 27 27 26 26 24 23 19 20 8 5 2 4 5 3 7 2 4 7 9 3 4 2 2 2 1 1 1 2 3 3 4 4 8 3 4
11 15 17 18 19 20 20 21 22 24 25 26 27 27 27 27 24 22 18 14 4 2 3 3 2 2 2 3 4 3 7 5 2 2 1 2 3 1 1 2 3 5 5 5 8 4 4
15 16 17 19 20 21 22 23 24 25 26 27 28 29 27 26 24 18 17 4 5 3 3 8 4 3 1 2 4 3 4 7 3 2 3 0 1 6 7 6 4 3 4 10 13 11 6
15 17 18 19 20 21 22 24 25 26 27 28 29 29 29 27 24 11 7 4 2 2 9 9 5 5 6 2 2 4 9 5 3 4 3 2 8 7 4 3 4 5 5 8 11 2 4
16 17 18 19 21 22 23 25 26 27 29 30 29 30 29 25 18 2 3 2 0 0 2 6 4 3 3 9 5 4 9 4 4 3 5 6 2 3 4 3 4 4 5 4 7 8 3
16 17 18 20 21 23 24 26 27 29 30 32 31 31 28 25 1 7 1 2 0 1 4 6 1 1 3 2 2 2 9 2 1 3 3 6 3 3 3 5 6 3 5 6 5 5 4
16 17 18 20 22 24 25 27 28 30 32 33 33 29 26 12 10 2 3 3 2 1 5 2 1 0 1 2 1 1 3 2 4 3 3 7 2 4 5 6 6 7 2 4 1 2 2
15 17 19 21 23 25 27 29 31 32 35 35 31 24 15 4 1 3 4 3 1 6 6 2 2 2 2 0 0 2 1 1 1 1 4 8 1 3 5 2 5 4 3 2 2 1 1
16 18 20 22 25 27 29 32 33 35 38 36 24 11 15 7 3 6 4 2 5 4 4 5 2 1 1 2 2 3 3 2 4 2 3 4 4 3 3 2 2 1 3 3 4 3 3
17 19 22 24 26 28 30 33 35 37 39 33 12 8 12 19 6 7 2 4 3 3 4 4 4 3 4 3 1 1 0 4 4 1 2 1 6 5 4 4 2 3 3 3 4 2 4
17 19 22 24 26 29 32 34 36 39 38 32 6 5 14 24 9 6 4 3 3 3 6 8 9 3 3 0 1 2 4 3 1 6 5 2 5 1 3 2 4 3 3 2 1 2 1
17 19 22 25 27 30 33 35 38 42 36 27 4 3 10 21 5 3 4 2 2 5 6 3 3 4 4 6 6 3 2 7 7 1 1 4 5 2 0 3 2 4 4 1 1 3 4
17 19 22 24 27 30 33 35 38 41 37 22 4 3 19 12 3 4 3 2 4 5 9 8 5 6 4 4 4 3 3 4 7 8 3 3 3 4 1 5 6 2 2 2 2 3 3
16 18 21 24 26 29 32 35 37 41 38 18 5 3 23 7 4 2 3 5 8 7 9 6 4 6 4 7 5 3 5 4 12 7 4 4 1 4 8 3 2 3 5 5 3 3 2
16 18 20 23 25 27 31 35 38 40 33 10 2 2 13 10 4 3 5 4 4 8 6 7 7 5 5 5 5 5 5 5 18 8 8 6 3 4 8 2 1 2 3 3 2 2 6
15 17 20 21 23 26 29 33 36 37 32 6 3 4 5 6 3 3 4 4 5 5 3 4 4 5 5 5 4 6 6 4 14 10 18 5 4 7 9 7 2 6 4 2 3 4 6
15 16 17 19 21 24 25 30 33 37 28 5 5 2 1 4 4 4 2 5 4 8 3 6 3 9 5 4 6 2 3 7 9 9 6 4 5 4 7 5 6 11 14 11 14 16 12
14 15 16 18 20 21 22 25 29 34 20 14 3 3 3 2 3 5 5 5 5 5 3 2 3 8 6 4 6 12 7 2 6 5 7 4 5 5 22 14 16 24 21 15 17 19 19
12 14 15 17 19 19 19 22 22 25 25 9 5 2 2 3 4 4 2 4 4 6 4 4 5 7 7 7 5 11 15 16 18 18 15 4 3 3 9 5 10 14 17 23 17 5 6
12 13 15 16 16 17 17 17 18 17 18 11 7 2 3 2 2 3 4 5 6 2 7 10 10 3 4 10 14 13 16 20 18 19 13 7 4 4 6 4 6 6 6 5 8 11 13
13 14 15 16 17 17 17 16 16 15 13 9 7 2 2 2 4 8 2 4 6 6 4 4 11 5 8 7 5 7 4 4 2 4 7 15 7 4 4 4 12 21 5 6 2 5 14
13 14 15 15 15 15 16 15 15 13 11 10 10 1 3 1 4 5 2 3 4 3 3 5 5 12 2 2 4 3 3 2 4 8 4 6 9 6 5 10 9 3 3 6 5 6 14
14 15 15 16 17 16 17 16 15 13 10 9 9 9 5 3 4 5 4 6 4 3 4 4 5 4 2 2 3 4 4 4 4 5 2 3 6 12 11 9 9 2 10 14 5 5 12
15 15 16 17 17 18 17 17 16 16 17 15 15 14 9 3 5 10 6 8 5 3 6 3 4 0 1 3 3 4 3 5 7 8 4 12 6 2 4 6 14 6 10 2 9 23 10
15 15 17 18 20 18 20 18 20 18 17 12 7 13 11 7 7 17 28 30 27 32 11 6 4 5 3 3 2 1 7 8 15 18 7 13 11 12 10 14 20 23 28 26 9 8 10
Wind_Direction
43 43 39 35 30 25 18 14 10 7 2 360 356 355 355 355 349 341 335 332 325 316 307 304 305 311 332 35 251 182 142 134 76 68 66 73 62 104 273 258 296 223 266 272 273 283 272
45 41 34 26 23 19 15 9 7 1 359 355 353 351 351 353 352 344 336 332 324 315 304 295 293 289 155 245 187 175 169 161 105 112 122 133 169 183 232 241 201 259 276 285 284 275 259
40 32 29 26 22 18 10 4 2 360 356 353 350 348 349 351 352 347 340 332 321 308 293 283 268 199 155 241 208 194 188 182 182 155 154 194 165 130 160 260 276 276 302 303 264 229 279
37 33 28 19 11 10 8 3 359 356 354 351 348 347 345 347 349 346 339 333 326 318 299 267 202 168 242 226 216 212 209 216 214 218 228 237 187 164 198 301 318 316 281 340 269 322 281
34 20 5 6 12 9 6 4 360 357 354 350 347 346 345 344 343 343 337 336 338 344 356 148 150 170 266 226 216 231 218 196 160 192 222 167 113 219 10 342 350 6 293 281 311 212 239
13 7 17 13 10 9 5 2 359 356 352 349 346 345 344 341 340 339 337 334 318 346 98 141 120 9 252 233 173 170 183 173 136 134 83 122 49 335 22 91 280 279 307 278 262 274 269
24 22 20 16 12 8 6 2 359 354 351 348 345 344 341 339 339 338 340 335 10 337 190 211 200 218 189 135 160 160 155 143 120 105 203 68 2 232 237 207 218 229 244 266 275 280 278
32 28 24 19 13 7 4 1 358 354 350 347 346 341 340 337 335 335 347 66 142 266 306 235 245 285 251 175 283 186 165 154 163 218 132 6 238 233 228 191 208 221 270 277 285 225 281
34 31 26 18 13 7 3 359 356 352 349 345 343 337 336 335 330 45 40 101 343 343 246 295 205 194 200 158 221 225 158 163 187 216 198 200 237 96 176 221 228 233 221 249 262 324 271
35 28 24 18 12 6 1 358 355 351 348 345 340 334 333 334 84 344 32 9 301 160 39 276 274 331 85 135 265 117 177 141 204 233 218 233 276 209 204 240 171 275 207 249 277 5 308
34 27 22 16 11 5 1 358 354 351 347 348 342 335 327 322 305 3 349 346 317 257 360 271 131 102 47 198 136 118 179 110 209 206 104 259 227 220 230 225 166 236 197 260 277 235 355
33 27 20 16 10 5 2 358 354 351 348 350 345 343 349 39 37 336 315 321 339 45 258 347 92 16 340 185 295 90 121 33 152 255 227 250 310 241 219 248 198 347 320 45 59 131 340
31 25 20 15 11 7 3 359 355 352 351 350 351 20 38 33 352 344 329 28 40 142 326 325 333 75 175 250 264 178 191 220 219 323 318 312 221 244 184 239 123 120 34 324 346 1 244
32 25 20 16 11 7 4 1 355 351 352 353 6 60 39 21 356 345 356 52 157 251 310 349 338 292 232 23 242 226 233 287 219 114 320 253 317 181 183 208 182 173 158 170 268 277 291
32 27 21 16 11 7 4 0 357 357 357 355 39 61 33 358 355 346 64 68 228 26 306 328 321 336 328 331 233 327 214 251 292 185 188 209 269 203 191 165 150 160 188 190 281 31 330
31 26 22 16 12 8 5 2 359 356 358 355 25 69 14 351 1 29 67 244 13 33 321 320 297 32 332 318 356 330 286 5 331 306 115 283 304 256 172 137 32 180 156 78 24 289 274
29 25 22 17 12 9 6 3 0 358 359 358 14 59 353 358 54 49 109 324 335 10 8 4 339 327 325 326 315 285 302 30 347 323 322 334 167 288 325 210 192 148 214 158 158 181 232
28 24 19 15 11 8 7 4 3 1 358 8 3 38 355 8 51 27 42 337 355 349 7 360 46 11 336 330 309 276 7 64 357 336 9 300 242 276 244 299 192 178 201 157 154 232 232
25 19 16 14 12 8 8 7 4 4 6 351 52 286 1 35 66 7 329 341 56 12 12 6 15 25 1 322 324 31 346 135 18 30 6 334 324 328 332 14 57 250 201 174 125 109 203
23 16 12 10 11 9 10 9 6 13 7 30 56 16 349 34 28 53 2 350 335 16 70 353 13 56 357 350 5 313 311 333 344 338 321 295 240 212 244 259 25 284 300 242 204 244 269
14 8 11 10 9 11 11 11 10 14 14 53 30 60 100 357 357 354 336 347 3 2 13 352 109 46 8 302 299 278 345 331 336 309 346 30 276 258 263 266 277 275 268 252 242 253 252
7 5 6 7 8 6 11 12 14 13 26 61 79 31 2 313 298 346 0 12 27 335 288 13 30 340 315 246 260 299 325 298 231 301 6 348 270 326 286 273 266 272 267 260 253 262 260
1 2 1 3 2 3 7 11 15 18 34 61 37 61 61 321 332 337 36 4 329 333 252 268 354 333 297 276 263 272 260 252 251 266 273 265 261 273 273 285 291 274 261 240 249 239 252
355 356 356 354 355 358 5 9 13 17 30 60 49 70 56 315 322 312 319 311 293 266 264 293 305 247 266 324 299 273 255 250 253 253 228 236 191 235 280 344 252 278 330 130 112 65 24
351 352 349 348 348 349 352 356 3 5 11 9 27 72 118 254 259 299 272 273 283 276 271 234 290 223 335 312 308 310 310 340 300 207 214 214 225 261 263 220 288 302 341 44 17 66 31
342 347 346 342 339 342 345 348 350 348 350 340 332 253 178 213 235 225 283 259 285 273 295 247 272 295 276 302 302 283 296 297 296 320 28 133 210 218 243 269 264 230 282 296 237 217 2
337 339 336 335 331 333 335 337 336 330 325 320 301 301 235 239 252 164 202 263 208 245 261 272 283 298 236 243 257 252 258 225 262 259 310 326 269 245 259 265 260 332 355 339 248 343 325
330 332 331 326 327 330 327 326 322 314 309 315 297 296 257 255 246 199 226 246 256 212 263 265 300 237 234 224 231 237 230 249 261 263 296 287 274 255 268 261 270 191 342 34 300 307 287
323 325 326 326 323 323 323 317 317 321 316 336 303 317 293 243 269 278 265 261 252 253 261 239 238 227 245 237 258 230 279 279 278 278 229 255 225 255 241 261 268 282 297 299 284 274 266